Time,TemperatureF,DewpointF,PressureIn,WindDirection,WindDirectionDegrees,WindSpeedMPH,WindSpeedGustMPH,Humidity,HourlyPrecipIn,Conditions,Clouds,dailyrainin,SoftwareType,DateUTC
2017-05-26 00:03:00,53.1,49.8,29.89,WSW,248,12.1,15.0,89,0.00,,,0.00,meteobridge,2017-05-26 07:03:00,
2017-05-26 00:05:00,53.1,50.2,29.89,WSW,237,10.1,15.0,90,0.00,,,0.00,meteobridge,2017-05-26 07:05:00,
2017-05-26 00:10:00,52.9,50.0,29.89,WSW,245,6.9,13.0,90,0.00,,,0.00,meteobridge,2017-05-26 07:10:00,
2017-05-26 00:15:00,52.9,49.6,29.89,WSW,244,10.1,17.0,89,0.00,,,0.00,meteobridge,2017-05-26 07:15:00,
2017-05-26 00:20:00,52.9,49.6,29.89,SW,226,10.1,17.0,89,0.00,,,0.00,meteobridge,2017-05-26 07:20:00,
2017-05-26 00:25:00,52.9,50.0,29.90,SW,221,12.1,14.0,90,0.00,,,0.00,meteobridge,2017-05-26 07:25:00,
2017-05-26 00:30:00,52.9,50.0,29.90,West,266,4.0,11.0,90,0.00,,,0.00,meteobridge,2017-05-26 07:30:00,
2017-05-26 00:35:00,52.7,49.8,29.90,WSW,255,4.9,12.0,90,0.00,,,0.00,meteobridge,2017-05-26 07:35:00,
2017-05-26 00:40:00,52.7,49.8,29.90,WSW,244,8.1,10.0,90,0.00,,,0.00,meteobridge,2017-05-26 07:40:00,
2017-05-26 00:45:00,52.7,49.8,29.90,SW,232,6.9,14.0,90,0.00,,,0.00,meteobridge,2017-05-26 07:45:00,
2017-05-26 00:50:00,52.5,49.6,29.90,SW,221,6.9,12.0,90,0.00,,,0.00,meteobridge,2017-05-26 07:50:00,
2017-05-26 00:56:00,52.5,49.6,29.90,SW,233,6.0,11.0,90,0.00,,,0.00,meteobridge,2017-05-26 07:56:00,
2017-05-26 01:01:00,52.5,49.6,29.90,WSW,244,8.9,12.0,90,0.00,,,0.00,meteobridge,2017-05-26 08:01:00,
2017-05-26 01:06:00,52.5,49.6,29.90,SSW,205,6.0,10.0,90,0.00,,,0.00,meteobridge,2017-05-26 08:06:00,
2017-05-26 01:11:00,52.5,49.6,29.90,WSW,241,2.9,9.0,90,0.00,,,0.00,meteobridge,2017-05-26 08:11:00,
2017-05-26 01:16:00,52.3,49.5,29.90,SW,235,6.0,9.0,90,0.00,,,0.00,meteobridge,2017-05-26 08:16:00,
2017-05-26 01:21:00,52.3,49.8,29.90,WSW,258,8.9,10.0,91,0.00,,,0.00,meteobridge,2017-05-26 08:21:00,
2017-05-26 01:26:00,52.3,49.8,29.90,SW,225,4.9,9.0,91,0.00,,,0.00,meteobridge,2017-05-26 08:26:00,
2017-05-26 01:31:00,52.3,49.8,29.91,SW,233,4.9,9.0,91,0.00,,,0.00,meteobridge,2017-05-26 08:31:00,
2017-05-26 01:36:00,52.3,49.8,29.91,WSW,247,6.0,9.0,91,0.00,,,0.00,meteobridge,2017-05-26 08:36:00,
2017-05-26 01:41:00,52.3,49.8,29.91,WSW,246,12.1,12.1,91,0.00,,,0.00,meteobridge,2017-05-26 08:41:00,
2017-05-26 01:46:00,52.3,49.8,29.90,West,259,4.9,10.0,91,0.00,,,0.00,meteobridge,2017-05-26 08:46:00,
2017-05-26 01:51:00,52.3,49.8,29.90,WSW,249,6.0,12.0,91,0.00,,,0.00,meteobridge,2017-05-26 08:51:00,
2017-05-26 01:56:00,52.5,50.0,29.90,WSW,250,6.0,10.0,91,0.00,,,0.00,meteobridge,2017-05-26 08:56:00,
2017-05-26 02:01:00,52.5,50.0,29.90,West,262,4.9,7.0,91,0.00,,,0.00,meteobridge,2017-05-26 09:01:00,
2017-05-26 02:06:00,52.5,50.0,29.90,SW,223,2.9,8.0,91,0.00,,,0.00,meteobridge,2017-05-26 09:06:00,
2017-05-26 02:11:00,52.5,49.6,29.90,SW,235,2.0,11.0,90,0.00,,,0.00,meteobridge,2017-05-26 09:11:00,
2017-05-26 02:16:00,52.5,49.6,29.90,West,267,6.9,12.0,90,0.00,,,0.00,meteobridge,2017-05-26 09:16:00,
2017-05-26 02:22:00,52.7,49.8,29.90,WSW,256,10.1,12.0,90,0.00,,,0.00,meteobridge,2017-05-26 09:22:00,
2017-05-26 02:27:00,52.7,49.8,29.90,WSW,253,8.1,13.0,90,0.00,,,0.00,meteobridge,2017-05-26 09:27:00,
2017-05-26 02:32:00,52.7,49.8,29.91,SW,235,8.1,12.0,90,0.00,,,0.00,meteobridge,2017-05-26 09:32:00,
2017-05-26 02:37:00,52.7,49.5,29.90,WSW,245,10.1,11.0,89,0.00,,,0.00,meteobridge,2017-05-26 09:37:00,
2017-05-26 02:42:00,52.9,49.6,29.90,WSW,238,4.0,15.0,89,0.00,,,0.00,meteobridge,2017-05-26 09:42:00,
2017-05-26 02:47:00,52.9,49.6,29.90,WSW,238,6.0,11.0,89,0.00,,,0.00,meteobridge,2017-05-26 09:47:00,
2017-05-26 02:52:00,52.9,49.6,29.90,SSW,210,8.1,12.0,89,0.00,,,0.00,meteobridge,2017-05-26 09:52:00,
2017-05-26 02:57:00,52.9,49.6,29.90,SSW,211,6.0,12.0,89,0.00,,,0.00,meteobridge,2017-05-26 09:57:00,
2017-05-26 03:02:00,52.9,49.6,29.90,WSW,245,6.9,10.0,89,0.00,,,0.00,meteobridge,2017-05-26 10:02:00,
2017-05-26 03:05:00,52.9,49.5,29.90,West,262,4.9,10.0,88,0.00,,,0.00,meteobridge,2017-05-26 10:05:00,
2017-05-26 03:10:00,52.9,49.5,29.90,SSW,195,6.9,10.0,88,0.00,,,0.00,meteobridge,2017-05-26 10:10:00,
2017-05-26 03:15:00,52.9,49.5,29.91,SW,227,6.0,9.0,88,0.00,,,0.00,meteobridge,2017-05-26 10:15:00,
2017-05-26 03:20:00,52.9,49.5,29.91,WSW,254,6.0,10.0,88,0.00,,,0.00,meteobridge,2017-05-26 10:20:00,
2017-05-26 03:25:00,52.9,49.1,29.91,SW,230,6.0,9.0,87,0.00,,,0.00,meteobridge,2017-05-26 10:25:00,
2017-05-26 03:30:00,52.9,49.1,29.91,SW,224,4.9,8.0,87,0.00,,,0.00,meteobridge,2017-05-26 10:30:00,
2017-05-26 03:35:00,52.9,49.1,29.91,SSW,211,4.9,6.0,87,0.00,,,0.00,meteobridge,2017-05-26 10:35:00,
2017-05-26 03:36:00,52.9,49.1,29.91,WSW,245,6.0,8.0,87,0.00,,,0.00,meteobridge,2017-05-26 10:36:00,
2017-05-26 03:41:00,52.9,49.1,29.91,SW,216,2.9,13.0,87,0.00,,,0.00,meteobridge,2017-05-26 10:41:00,
2017-05-26 03:46:00,52.9,49.1,29.91,SW,228,2.0,8.0,87,0.00,,,0.00,meteobridge,2017-05-26 10:46:00,
2017-05-26 03:51:00,52.9,49.1,29.91,SSE,157,0.0,4.0,87,0.00,,,0.00,meteobridge,2017-05-26 10:51:00,
2017-05-26 03:56:00,52.9,49.1,29.91,SSW,212,2.9,8.0,87,0.00,,,0.00,meteobridge,2017-05-26 10:56:00,
2017-05-26 04:01:00,52.9,49.1,29.91,SW,231,2.9,7.0,87,0.00,,,0.00,meteobridge,2017-05-26 11:01:00,
2017-05-26 04:06:00,52.9,49.1,29.91,SSE,162,2.0,4.0,87,0.00,,,0.00,meteobridge,2017-05-26 11:06:00,
2017-05-26 04:11:00,52.9,49.1,29.91,SSW,213,2.0,3.0,87,0.00,,,0.00,meteobridge,2017-05-26 11:11:00,
2017-05-26 04:16:00,52.9,49.1,29.91,South,191,2.0,6.0,87,0.00,,,0.00,meteobridge,2017-05-26 11:16:00,
2017-05-26 04:21:00,52.9,49.1,29.91,WSW,245,4.0,8.0,87,0.00,,,0.00,meteobridge,2017-05-26 11:21:00,
2017-05-26 04:26:00,52.9,49.1,29.91,South,187,2.0,7.0,87,0.00,,,0.00,meteobridge,2017-05-26 11:26:00,
2017-05-26 04:31:00,52.9,49.1,29.91,SW,219,8.1,8.1,87,0.00,,,0.00,meteobridge,2017-05-26 11:31:00,
2017-05-26 04:36:00,52.9,49.1,29.91,SW,230,2.9,6.0,87,0.00,,,0.00,meteobridge,2017-05-26 11:36:00,
2017-05-26 04:41:00,52.9,49.1,29.91,SW,224,4.9,7.0,87,0.00,,,0.00,meteobridge,2017-05-26 11:41:00,
2017-05-26 04:47:00,52.9,49.1,29.91,WSW,238,6.9,10.0,87,0.00,,,0.00,meteobridge,2017-05-26 11:47:00,
2017-05-26 04:52:00,52.7,49.3,29.91,SW,223,8.1,11.0,88,0.00,,,0.00,meteobridge,2017-05-26 11:52:00,
2017-05-26 04:57:00,52.5,49.1,29.91,WSW,244,8.1,11.0,88,0.00,,,0.00,meteobridge,2017-05-26 11:57:00,
2017-05-26 05:02:00,52.5,49.1,29.91,SW,224,10.1,10.1,88,0.00,,,0.00,meteobridge,2017-05-26 12:02:00,
2017-05-26 05:07:00,52.5,49.1,29.91,WSW,243,2.9,11.0,88,0.00,,,0.00,meteobridge,2017-05-26 12:07:00,
2017-05-26 05:12:00,52.3,48.9,29.92,WSW,244,2.9,9.0,88,0.00,,,0.00,meteobridge,2017-05-26 12:12:00,
2017-05-26 05:17:00,52.3,48.9,29.92,SW,225,4.9,7.0,88,0.00,,,0.00,meteobridge,2017-05-26 12:17:00,
2017-05-26 05:22:00,52.3,49.3,29.92,SW,217,6.9,10.0,89,0.00,,,0.00,meteobridge,2017-05-26 12:22:00,
2017-05-26 05:27:00,52.2,49.1,29.92,SW,220,2.0,8.0,89,0.00,,,0.00,meteobridge,2017-05-26 12:27:00,
2017-05-26 05:32:00,52.2,49.1,29.92,WSW,256,4.0,8.0,89,0.00,,,0.00,meteobridge,2017-05-26 12:32:00,
2017-05-26 05:37:00,52.2,49.1,29.92,SW,216,11.0,13.0,89,0.00,,,0.00,meteobridge,2017-05-26 12:37:00,
2017-05-26 05:42:00,52.2,48.7,29.92,WSW,257,10.1,12.0,88,0.00,,,0.00,meteobridge,2017-05-26 12:42:00,
2017-05-26 05:52:00,52.3,48.9,29.92,WSW,240,4.0,11.0,88,0.00,,,0.00,meteobridge,2017-05-26 12:52:00,
2017-05-26 05:53:00,52.3,48.9,29.92,WSW,242,8.1,8.1,88,0.00,,,0.00,meteobridge,2017-05-26 12:53:00,
2017-05-26 05:58:00,52.3,48.9,29.92,SW,229,8.9,13.0,88,0.00,,,0.00,meteobridge,2017-05-26 12:58:00,
2017-05-26 06:03:00,52.3,48.9,29.93,SW,221,10.1,13.0,88,0.00,,,0.00,meteobridge,2017-05-26 13:03:00,
2017-05-26 06:08:00,52.3,48.9,29.93,South,185,6.9,11.0,88,0.00,,,0.00,meteobridge,2017-05-26 13:08:00,
2017-05-26 06:13:00,52.3,48.9,29.93,WSW,238,4.9,9.0,88,0.00,,,0.00,meteobridge,2017-05-26 13:13:00,
2017-05-26 06:19:00,52.3,48.6,29.93,WSW,241,6.0,14.0,87,0.00,,,0.00,meteobridge,2017-05-26 13:19:00,
2017-05-26 06:24:00,52.3,48.6,29.93,SW,235,6.9,7.0,87,0.00,,,0.00,meteobridge,2017-05-26 13:24:00,
2017-05-26 06:29:00,52.3,48.9,29.93,West,274,4.9,10.0,88,0.00,,,0.00,meteobridge,2017-05-26 13:29:00,
2017-05-26 06:34:00,52.3,48.9,29.93,SW,221,6.0,10.0,88,0.00,,,0.00,meteobridge,2017-05-26 13:34:00,
2017-05-26 06:39:00,52.3,48.9,29.93,SW,228,4.9,12.0,88,0.00,,,0.00,meteobridge,2017-05-26 13:39:00,
2017-05-26 06:44:00,52.5,49.1,29.94,WSW,245,4.9,8.0,88,0.00,,,0.00,meteobridge,2017-05-26 13:44:00,
2017-05-26 06:49:00,52.5,49.1,29.94,WSW,247,4.0,6.0,88,0.00,,,0.00,meteobridge,2017-05-26 13:49:00,
2017-05-26 06:54:00,52.5,49.1,29.94,WSW,245,6.9,9.0,88,0.00,,,0.00,meteobridge,2017-05-26 13:54:00,
2017-05-26 06:59:00,52.7,49.3,29.95,WSW,239,8.1,10.0,88,0.00,,,0.00,meteobridge,2017-05-26 13:59:00,
2017-05-26 07:13:00,52.9,49.1,29.95,SW,235,10.1,13.0,87,0.00,,,0.00,meteobridge,2017-05-26 14:13:00,
2017-05-26 07:18:00,52.9,49.5,29.95,West,269,6.0,10.0,88,0.00,,,0.00,meteobridge,2017-05-26 14:18:00,
2017-05-26 07:24:00,52.9,49.5,29.96,West,276,4.9,8.0,88,0.00,,,0.00,meteobridge,2017-05-26 14:24:00,
2017-05-26 07:29:00,52.9,49.5,29.96,West,267,2.9,6.0,88,0.00,,,0.00,meteobridge,2017-05-26 14:29:00,
2017-05-26 07:34:00,52.9,49.5,29.96,SSW,212,2.9,6.0,88,0.00,,,0.00,meteobridge,2017-05-26 14:34:00,
2017-05-26 07:39:00,52.7,48.9,29.96,West,263,4.0,8.0,87,0.00,,,0.00,meteobridge,2017-05-26 14:39:00,
2017-05-26 07:44:00,52.9,49.1,29.96,West,271,2.0,4.0,87,0.00,,,0.00,meteobridge,2017-05-26 14:44:00,
2017-05-26 07:49:00,53.1,49.3,29.96,West,268,6.0,9.0,87,0.00,,,0.00,meteobridge,2017-05-26 14:49:00,
2017-05-26 07:54:00,53.1,49.3,29.96,WSW,240,4.0,8.0,87,0.00,,,0.00,meteobridge,2017-05-26 14:54:00,
2017-05-26 07:59:00,53.2,49.5,29.97,West,267,6.0,8.0,87,0.00,,,0.00,meteobridge,2017-05-26 14:59:00,
2017-05-26 08:04:00,53.1,49.3,29.97,West,281,2.9,6.0,87,0.00,,,0.00,meteobridge,2017-05-26 15:04:00,
2017-05-26 08:09:00,53.2,49.1,29.97,West,277,4.9,7.0,86,0.00,,,0.00,meteobridge,2017-05-26 15:09:00,
2017-05-26 08:14:00,53.2,49.1,29.97,West,261,10.1,10.1,86,0.00,,,0.00,meteobridge,2017-05-26 15:14:00,
2017-05-26 08:19:00,53.2,49.1,29.97,West,271,4.9,9.0,86,0.00,,,0.00,meteobridge,2017-05-26 15:19:00,
2017-05-26 08:24:00,53.1,48.9,29.97,West,268,4.9,9.0,86,0.00,,,0.00,meteobridge,2017-05-26 15:24:00,
2017-05-26 08:29:00,53.2,49.1,29.97,WNW,287,8.1,10.0,86,0.00,,,0.00,meteobridge,2017-05-26 15:29:00,
2017-05-26 08:34:00,53.2,48.9,29.98,SW,234,8.1,9.0,85,0.00,,,0.00,meteobridge,2017-05-26 15:34:00,
2017-05-26 08:39:00,53.4,49.1,29.98,WSW,255,8.1,10.0,85,0.00,,,0.00,meteobridge,2017-05-26 15:39:00,
2017-05-26 08:44:00,53.6,49.3,29.98,West,264,4.9,6.0,85,0.00,,,0.00,meteobridge,2017-05-26 15:44:00,
2017-05-26 08:49:00,53.4,48.7,29.98,WSW,246,6.9,11.0,84,0.00,,,0.00,meteobridge,2017-05-26 15:49:00,
2017-05-26 08:54:00,53.4,49.1,29.98,West,260,6.0,11.0,85,0.00,,,0.00,meteobridge,2017-05-26 15:54:00,
2017-05-26 08:59:00,53.8,49.1,29.98,West,270,6.9,10.0,84,0.00,,,0.00,meteobridge,2017-05-26 15:59:00,
2017-05-26 09:04:00,53.8,49.1,29.98,West,269,11.0,11.0,84,0.00,,,0.00,meteobridge,2017-05-26 16:04:00,
2017-05-26 09:09:00,53.8,49.1,29.98,WSW,243,8.1,9.0,84,0.00,,,0.00,meteobridge,2017-05-26 16:09:00,
2017-05-26 09:14:00,53.8,49.1,29.98,WSW,242,6.0,11.0,84,0.00,,,0.00,meteobridge,2017-05-26 16:14:00,
2017-05-26 09:19:00,54.0,48.9,29.98,SW,235,4.0,14.0,83,0.00,,,0.00,meteobridge,2017-05-26 16:19:00,
2017-05-26 09:24:00,54.1,49.5,29.98,WSW,254,10.1,11.0,84,0.00,,,0.00,meteobridge,2017-05-26 16:24:00,
2017-05-26 09:29:00,54.1,49.1,29.98,West,266,8.9,11.0,83,0.00,,,0.00,meteobridge,2017-05-26 16:29:00,
2017-05-26 09:34:00,54.3,49.3,29.98,WSW,255,4.9,12.0,83,0.00,,,0.00,meteobridge,2017-05-26 16:34:00,
2017-05-26 09:39:00,54.3,48.9,29.99,WSW,239,10.1,14.0,82,0.00,,,0.00,meteobridge,2017-05-26 16:39:00,
2017-05-26 09:44:00,54.1,49.1,29.99,West,280,6.9,15.0,83,0.00,,,0.00,meteobridge,2017-05-26 16:44:00,
2017-05-26 09:49:00,54.1,49.1,29.99,West,263,6.9,10.0,83,0.00,,,0.00,meteobridge,2017-05-26 16:49:00,
2017-05-26 09:54:00,54.1,49.1,29.99,West,268,10.1,14.0,83,0.00,,,0.00,meteobridge,2017-05-26 16:54:00,
2017-05-26 09:59:00,54.1,49.1,29.99,West,275,6.0,13.0,83,0.00,,,0.00,meteobridge,2017-05-26 16:59:00,
2017-05-26 10:04:00,54.1,49.1,29.99,SW,235,8.9,11.0,83,0.00,,,0.00,meteobridge,2017-05-26 17:04:00,
2017-05-26 10:10:00,54.5,49.5,30.00,West,263,6.9,12.0,83,0.00,,,0.00,meteobridge,2017-05-26 17:10:00,
2017-05-26 10:15:00,54.5,49.1,30.00,West,266,6.0,12.0,82,0.00,,,0.00,meteobridge,2017-05-26 17:15:00,
2017-05-26 10:20:00,54.7,49.3,30.00,West,259,6.9,12.0,82,0.00,,,0.00,meteobridge,2017-05-26 17:20:00,
2017-05-26 10:25:00,54.7,49.3,30.00,WSW,251,8.1,15.0,82,0.00,,,0.00,meteobridge,2017-05-26 17:25:00,
2017-05-26 10:30:00,54.7,49.3,30.00,WSW,256,10.1,12.0,82,0.00,,,0.00,meteobridge,2017-05-26 17:30:00,
2017-05-26 10:35:00,54.9,49.5,30.00,SW,236,6.9,11.0,82,0.00,,,0.00,meteobridge,2017-05-26 17:35:00,
2017-05-26 10:40:00,55.0,49.6,30.00,WSW,257,4.9,11.0,82,0.00,,,0.00,meteobridge,2017-05-26 17:40:00,
2017-05-26 10:45:00,55.2,49.8,30.00,SW,220,6.9,11.0,82,0.00,,,0.00,meteobridge,2017-05-26 17:45:00,
2017-05-26 10:50:00,55.2,49.8,30.00,West,268,6.9,13.0,82,0.00,,,0.00,meteobridge,2017-05-26 17:50:00,
2017-05-26 10:55:00,55.8,50.0,30.00,WSW,255,4.0,10.0,81,0.00,,,0.00,meteobridge,2017-05-26 17:55:00,
2017-05-26 11:00:00,55.6,49.5,30.00,SW,235,6.0,12.0,80,0.00,,,0.00,meteobridge,2017-05-26 18:00:00,
2017-05-26 11:05:00,55.9,50.2,30.00,SW,217,8.1,12.0,81,0.00,,,0.00,meteobridge,2017-05-26 18:05:00,
2017-05-26 11:10:00,55.9,49.8,30.00,WSW,244,8.1,11.0,80,0.00,,,0.00,meteobridge,2017-05-26 18:10:00,
2017-05-26 11:15:00,56.1,49.6,30.00,SW,214,6.0,15.0,79,0.00,,,0.00,meteobridge,2017-05-26 18:15:00,
2017-05-26 11:20:00,56.7,50.5,30.01,SW,229,13.0,13.0,80,0.00,,,0.00,meteobridge,2017-05-26 18:20:00,
2017-05-26 11:25:00,56.5,50.0,30.01,WSW,256,8.9,15.0,79,0.00,,,0.00,meteobridge,2017-05-26 18:25:00,